{"data":{"norad_id":61945,"intl_designator":"2024-209G","name":"STARLINK-11421 [DTC]","alt_names":[],"object_type":"PAYLOAD","status":"ACTIVE","operator":null,"country":"US","launch_date":"2024-11-14","launch_site_code":"AFWTR","launch_vehicle":null,"mission":null,"orbit_class":"UNKNOWN","rcs_meters":null,"size_class":null,"mass_kg":null,"dimensions":null,"purposes":["comms"],"wikipedia_slug":null,"has_3d_model":false,"image_url":null,"decayed_at":null,"tle_current":{"epoch":"2026-05-25T00:24:23.488992Z","epoch_age_seconds":67614,"freshness":"FRESH","line1":"1 61945U 24209G   26145.01693853  .00138203  00000+0  11249-2 0  9990","line2":"2 61945  53.1577 355.1671 0001033 126.4736 233.6377 15.69748938 88668","mean_motion":15.69748938,"eccentricity":0.0001033,"inclination_deg":53.1577,"raan_deg":355.1671,"arg_perigee_deg":126.4736,"mean_anomaly_deg":233.6377,"bstar":0.0011249,"rev_number":8866,"period_min":91.734414665997,"perigee_km":358.91931725636,"apogee_km":360.31133688713,"semimajor_km":6737.7523270717,"source":"CELESTRAK","updated_at":"2026-05-25T13:38:19.487170Z"}}}